Regional Weather Roundup
Issued by NWS

Home | Current Version | Previous Version | Text Only | Print | Product List | Glossary On
Versions: 1 2 3 4 5 6 7 8 9 10 11 12 13 14 15 16 17 18 19 20 21 22 23 24 25 26 27 28 29 30 31 32 33 34 35 36 37 38 39 40 41 42 43 44 45 46 47 48 49 50
000
ASUS44 KLUB 271101
RWRTX
WEST TEXAS WEATHER ROUNDUP
NATIONAL WEATHER SERVICE LUBBOCK TX
600 AM CDT FRI MAR 27 2015

NOTE: "FAIR" INDICATES FEW OR NO CLOUDS BELOW 12,000 FEET WITH NO
SIGNIFICANT WEATHER AND/OR OBSTRUCTIONS TO VISIBILITY.

TXZ004-006>008-010-012-014-016-OKZ002-271200-
TEXAS PANHANDLE/OKLAHOMA PANHANDLE

CITY           SKY/WX    TMP DP  RH WIND       PRES   REMARKS
AMARILLO       CLEAR     40  21  46 N7        30.17R
BORGER         CLEAR     44  24  45 CALM      30.17R
CANADIAN       CLOUDY    50  33  53 NE6       30.16S
DALHART        CLEAR     39  26  59 N5        30.18F
DUMAS          CLEAR     36  23  60 N5        30.17S WCI  32
GUYMON         MOCLDY    43  32  65 CALM      30.18R
$$

TXZ026-029-035-045-048-271200-
SOUTHERN PANHANDLE/SOUTH PLAINS/ROLLING PLAINS

CITY           SKY/WX    TMP DP  RH WIND       PRES   REMARKS
CHILDRESS      CLEAR     44  25  47 N7        30.14R
SEMINOLE       CLEAR     41  26  55 W9        30.21S
LUBBOCK        FAIR      37  22  54 W9        30.15F WCI  30
$$

TXZ052-054-060>062-072-078-127-140-154-169-271200-
PERMIAN BASIN/CONCHO VALLEY/BIG COUNTRY/EDWARDS PLATEAU

CITY           SKY/WX    TMP DP  RH WIND       PRES   REMARKS
ABILENE        CLEAR     49  29  46 SW8       30.14S
BRADY          CLEAR     39  34  81 W8        30.16S WCI  34
JUNCTION       CLEAR     36  33  89 CALM      30.20S
MIDLAND        CLEAR     44  32  62 MISG      30.18S
ODESSA         CLEAR     42  30  62 W8        30.20R
SAN ANGELO     CLEAR     42  31  64 W8        30.17S
WINK           CLEAR     40  31  70 CALM      30.19S
$$

TXZ055-058-074-075-080-082-271200-
FAR WEST/SOUTHWEST MOUNTAINS/TRANS PECOS

CITY           SKY/WX    TMP DP  RH WIND       PRES   REMARKS
ALPINE         CLEAR     42  29  62 SW9       30.31S
DRYDEN           N/A     47  36  65 W8        30.21R
EL PASO        PTCLDY    47  29  49 SE3       30.22F
FORT STOCKTON  CLEAR     47  32  56 S12       30.20S
GUADALUPE PASS PTCLDY    47  25  42 SW15      30.26F
MARFA          CLEAR     30  28  93 NE7       30.29S WCI  23
PECOS          CLEAR     39  34  82 NW3       30.20S
$$

TXZ014-016-019-021>030-083-271200
TEXAS TECH WEST TEXAS MESONET/TEXAS PANHANDLE/NORTHERN SOUTH PLAINS

CITY           SKY/WX    TMP DP  RH WIND       PRES   REMARKS
ABERNATHY 5ENE   N/A     36  25  63 W7        30.16F WCI  31
AMARILLO 9NNE    N/A     33  22  63 W1        30.17R
AMARILLO 7SSE    N/A     31  22  69 SW5       30.17R WCI  27
AMHERST 1NE      N/A     41  25  52 W8        30.17S
BOOTLEG 11WNW    N/A     39  21  47 SW10      30.17F WCI  32
CANADIAN 6E      N/A     47  31  54 N3        30.15R
CAPROCK CYN SP   N/A     53  18  25 W14       30.14R
CHILDRESS 2NNE   N/A     46  24  43 NW8       30.13R
CLARENDON 2WSW   N/A     44  25  46 N6        30.15S
DIMMITT 2NE      N/A     43  23  45 SW10      30.15F
FLOYDADA 2NNE    N/A     32  24  72 NW6       30.15S WCI  26
GOODLETT 3W      N/A     45  25  46 NW9       30.11R
HART 3N          N/A     35  23  61 W9        30.15F WCI  28
HEREFORD 2NW     N/A     35  23  62 SW8       30.13F WCI  28
MCLEAN 1E        N/A     40  25  55 NW10      30.14R WCI  34
MEMPHIS 1NE      N/A     47  25  42 NE1       30.14R
MULESHOE 2SSW    N/A     31  26  81 SW8       30.17F WCI  23
OLTON 6S         N/A     35  26  68 W8        30.16F WCI  29
PALO DURO SP     N/A     45  19  36 W12       30.17R
PAMPA 2E         N/A     42  25  51 N2        30.16S
PLAINVIEW 1S     N/A     40  25  54 W6        30.15S
SILVERTON 7ESE   N/A     35  23  62 W8        30.16R WCI  28
TULIA 2ENE       N/A     32  24  73 W7        30.15S WCI  26
TURKEY 2WSW      N/A     48  22  35 N10       30.13R
UMBARGER 3NNE    N/A     29  22  75 W6        30.17R WCI  23
$$

TXZ033>036-039>041-045>048-271200
TEXAS TECH WEST TEXAS MESONET/SOUTH PLAINS

CITY           SKY/WX    TMP DP  RH WIND       PRES   REMARKS
AIKEN 3WSW       N/A     33  24  68 NW3       30.16F
ANDREWS 2NE      N/A     45  26  46 W10       30.20R
ANTON 6SSW       N/A     38  22  53 W8        30.17R WCI  32
BROWNFIELD 2S    N/A     40  23  52 W10       30.18R WCI  33
DENVR CTY 7WNW   N/A     37  23  55 SW8       30.19F WCI  31
GAIL 2ESE        N/A     48  26  41 W8        30.15S
LAMESA 2SE       N/A     39  27  62 W9        30.19R WCI  32
LEVELLAND 4S     N/A     38  22  53 W10       30.17S WCI  31
LUBBOCK 3WNW     N/A     37  20  49 W2        30.18S
MORTON 1ENE      N/A     43  24  48 SW13      30.17S
ODONNELL 1N      N/A     38  22  53 W9        30.17S WCI  32
PLAINS 3N        N/A     32  24  72 SW7       30.19S WCI  25
RALLS 1SE        N/A     39  19  45 W8        30.16S WCI  33
REESE CENTER     N/A     36  22  57 W2        30.16S
SEAGRAVES 1SW    N/A     40  25  54 W9        30.19S WCI  34
SEMINOLE 2NNE    N/A     40  26  57 W9        30.19F WCI  33
SLATON 2NE       N/A     39  19  44 W6        30.17R WCI  35
SNYDER 3E        N/A     41  29  61 SW6       30.16S
SUNDOWN 8SW      N/A     40  24  52 SW12      30.17F WCI  33
TAHOKA 3NNE      N/A     44  23  44 W9        30.16S
WOLFFORTH 6SSW   N/A     41  23  49 W8        30.17S
$$

TXZ031-032-036>038-042>044-271200-
TEXAS TECH WEST TEXAS MESONET/ROLLING PLAINS

CITY           SKY/WX    TMP DP  RH WIND       PRES   REMARKS
ASPERMONT 3NE    N/A     43  28  55 SW6       30.13S
FLUVANNA 3WNW    N/A     42  25  50 SW9       30.15S
GRAHAM 5SSW      N/A     44  22  41 W14       30.16R
GUTHRIE 10WSW    N/A     47  23  40 W1        30.12S
HASKELL 1NW      N/A     42  31  65 SW9       30.12S
KNOX CITY 3NW    N/A     44  29  56 SW7       30.12S
LK A HENRY 1NW   N/A     42  26  52 W8        30.15S
NORTHFIELD 1S    N/A     43  25  48 NW3       30.14R
ODELL 4ENE       N/A     38  32  78 W3        30.12R
PADUCAH 10SW     N/A     48  22  35 W13       30.11S
POST 1NE         N/A     48  22  37 W16       30.14R
RRING SPRGS 3N   N/A     46  23  39 W12       30.13S
SEYMOUR 3NW      N/A     40  33  77 SW6       30.11S
SPUR 1W          N/A     44  23  44 NW3       30.14R
WEINERT 2NNE     N/A     44  29  57 SW7       30.12S
WHITE RVR 6NE    N/A     46  19  34 W17       30.13S
$$

TXZ052-054-060>062-072-078-127-140-154-169-271200-
TEXAS TECH WEST TEXAS MESONET/PERMIAN BASIN/
CONCHO VALLEY/BIG COUNTRY/EDWARDS PLATEAU

CITY           SKY/WX    TMP DP  RH WIND       PRES   REMARKS
COYANOSA 2N      N/A     43  36  76 S6        30.20R
JUNCTION 1SSW    N/A     35  32  88 S3        30.21S
MERTZON 3NNE     N/A     39  31  73 SW3       30.19S
SAN ANGELO 7NW   N/A     39  31  74 NW5       30.18F
STRLNG CT 4WSW   N/A     39  31  73 NE1       30.19S
ST LAWRNCE 5SW   N/A     40  32  73 SW8       30.18S WCI  34
SWEETWATR 11SW   N/A     45  27  49 SW6       30.18R
WALL 1E          N/A     39  31  72 W7        30.18R WCI  34
$$

TXZ055-058-074-075-080-082-271200-
TEXAS TECH WEST TEXAS MESONET/FAR WEST/SOUTHWEST MOUNTAINS/TRANS PECOS

CITY           SKY/WX    TMP DP  RH WIND       PRES   REMARKS
PRSMN GAP BBNP   N/A     45  36  69 W1        30.25R
$$


USA.gov is the U.S. government's official web portal to all federal, state and local government web resources and services.